Location: Cisewo
(53.3833°N, 14.9000°E)
Time: 11:20:50
(UTC+00:00)

Cosmos 2360 Rocket - Pass Details

Date: 18 April 2021
Orbit: 833 x 845 km, 71.0° (Epoch: 14 May)

Event Time Altitude Azimuth Distance (km) Brightness Sun altitude
Rises 18:49:36 0° 323° (NW) 3,415 6.7 -6.6°
Reaches altitude 10° 18:52:17 10° 314° (NW) 2,474 6.2 -7.0°
Maximum altitude 18:57:13 32° 254° (WSW) 1,419 3.9 -7.6°
Drops below altitude 10° 19:02:08 10° 193° (SSW) 2,453 4.4 -8.2°
Sets 19:04:47 0° 183° (S) 3,381 5.0 -8.6°
